Radiation Dose at Monitoring Post of Fukushima Daini Nuclear Power Station
Date,Time,MP-1(microSv/h),MP-2(microSv/h),MP-3(microSv/h),MP-4(microSv/h),MP-5(microSv/h),MP-6(microSv/h),MP-7(microSv/h),Wind Direction,Wind Velocity(m/s),Rain
2018/12/31,00:00,0.224,0.193,0.312,0.293,0.276,0.155,0.095,west-northwest,7.1,No
2018/12/31,00:10,0.224,0.193,0.313,0.292,0.278,0.155,0.094,west-northwest,6.5,No
2018/12/31,00:20,0.224,0.193,0.314,0.293,0.276,0.156,0.094,west-northwest,6.3,No
2018/12/31,00:30,0.226,0.193,0.312,0.293,0.277,0.155,0.094,west-northwest,5.6,No
2018/12/31,00:40,0.226,0.192,0.313,0.292,0.276,0.156,0.094,west-northwest,7.0,No
2018/12/31,00:50,0.225,0.193,0.311,0.293,0.277,0.156,0.095,northwest,7.3,No
2018/12/31,01:00,0.224,0.193,0.313,0.294,0.276,0.155,0.095,northwest,6.0,No
2018/12/31,01:10,0.224,0.192,0.312,0.292,0.277,0.156,0.095,northwest,7.3,No
2018/12/31,01:20,0.224,0.194,0.313,0.292,0.276,0.155,0.095,northwest,6.4,No
2018/12/31,01:30,0.224,0.192,0.312,0.293,0.277,0.156,0.095,northwest,7.7,No
2018/12/31,01:40,0.224,0.193,0.312,0.291,0.278,0.155,0.095,northwest,8.6,No
2018/12/31,01:50,0.225,0.193,0.312,0.293,0.277,0.155,0.095,northwest,8.1,No
2018/12/31,02:00,0.224,0.192,0.313,0.292,0.277,0.156,0.095,west-northwest,7.7,No
2018/12/31,02:10,0.225,0.193,0.311,0.293,0.277,0.157,0.094,northwest,7.8,No
2018/12/31,02:20,0.225,0.192,0.314,0.293,0.278,0.155,0.094,west-northwest,6.6,No
2018/12/31,02:30,0.226,0.193,0.312,0.291,0.277,0.155,0.095,northwest,8.4,No
2018/12/31,02:40,0.225,0.193,0.314,0.291,0.276,0.156,0.094,northwest,9.3,No
2018/12/31,02:50,0.225,0.192,0.313,0.293,0.276,0.155,0.094,northwest,6.4,No
2018/12/31,03:00,0.225,0.194,0.312,0.292,0.277,0.155,0.095,west-northwest,4.4,No
2018/12/31,03:10,0.224,0.192,0.312,0.292,0.277,0.156,0.094,northwest,3.6,No
2018/12/31,03:20,0.225,0.193,0.314,0.293,0.278,0.156,0.096,northwest,3.5,No
2018/12/31,03:30,0.225,0.194,0.313,0.292,0.277,0.155,0.094,west-northwest,3.1,No
2018/12/31,03:40,0.225,0.193,0.313,0.292,0.275,0.155,0.095,northwest,5.6,No
2018/12/31,03:50,0.225,0.193,0.312,0.292,0.276,0.155,0.095,northwest,5.9,No
2018/12/31,04:00,0.225,0.193,0.312,0.293,0.276,0.155,0.095,northwest,5.7,No
2018/12/31,04:10,0.225,0.192,0.312,0.292,0.277,0.154,0.095,northwest,5.7,No
2018/12/31,04:20,0.225,0.194,0.312,0.292,0.276,0.154,0.095,west-northwest,5.5,No
2018/12/31,04:30,0.225,0.193,0.312,0.293,0.277,0.155,0.094,northwest,5.8,No
2018/12/31,04:40,0.224,0.193,0.314,0.292,0.276,0.155,0.096,northwest,6.5,No
2018/12/31,04:50,0.224,0.193,0.314,0.293,0.275,0.156,0.095,northwest,8.5,No
2018/12/31,05:00,0.224,0.194,0.313,0.293,0.277,0.154,0.094,northwest,8.4,No
2018/12/31,05:10,0.225,0.193,0.313,0.294,0.278,0.155,0.095,northwest,7.8,No
2018/12/31,05:20,0.225,0.193,0.312,0.294,0.277,0.155,0.094,northwest,8.1,No
2018/12/31,05:30,0.226,0.194,0.312,0.293,0.277,0.155,0.095,west-northwest,7.1,No
2018/12/31,05:40,0.225,0.194,0.313,0.293,0.277,0.155,0.095,west-northwest,7.4,No
2018/12/31,05:50,0.225,0.192,0.313,0.291,0.276,0.155,0.095,northwest,6.8,No
2018/12/31,06:00,0.224,0.193,0.313,0.291,0.276,0.155,0.094,northwest,6.3,No
2018/12/31,06:10,0.225,0.193,0.313,0.293,0.277,0.156,0.095,northwest,5.6,No
2018/12/31,06:20,0.224,0.191,0.312,0.292,0.277,0.154,0.095,northwest,4.6,No
2018/12/31,06:30,0.224,0.193,0.312,0.294,0.276,0.156,0.095,northwest,3.8,No
2018/12/31,06:40,0.225,0.193,0.311,0.292,0.276,0.154,0.095,west-northwest,2.2,No
2018/12/31,06:50,0.224,0.192,0.313,0.292,0.276,0.155,0.095,northwest,2.8,No
2018/12/31,07:00,0.224,0.193,0.313,0.292,0.277,0.156,0.094,west-northwest,2.5,No
2018/12/31,07:10,0.224,0.194,0.311,0.293,0.278,0.154,0.095,west-northwest,3.7,No
2018/12/31,07:20,0.225,0.193,0.312,0.291,0.276,0.155,0.095,west,5.1,No
2018/12/31,07:30,0.224,0.192,0.312,0.293,0.276,0.155,0.094,west-northwest,5.3,No
2018/12/31,07:40,0.224,0.192,0.313,0.293,0.276,0.155,0.094,west,4.8,No
2018/12/31,07:50,0.224,0.193,0.313,0.292,0.276,0.156,0.095,west,4.5,No
2018/12/31,08:00,0.224,0.193,0.313,0.292,0.277,0.154,0.095,west-northwest,3.8,No
2018/12/31,08:10,0.224,0.193,0.313,0.292,0.276,0.155,0.095,west-northwest,3.4,No
2018/12/31,08:20,0.225,0.192,0.313,0.293,0.276,0.155,0.095,northwest,3.3,No
2018/12/31,08:30,0.225,0.193,0.312,0.292,0.275,0.155,0.095,northwest,3.3,No
2018/12/31,08:40,0.225,0.193,0.312,0.291,0.275,0.154,0.094,northwest,3.0,No
2018/12/31,08:50,0.225,0.194,0.311,0.290,0.276,0.154,0.094,northwest,2.7,No
2018/12/31,09:00,0.224,0.194,0.312,0.291,0.277,0.155,0.094,northwest,2.0,No
2018/12/31,09:10,0.225,0.192,0.312,0.291,0.278,0.154,0.094,northwest,2.6,No
2018/12/31,09:20,0.225,0.193,0.313,0.293,0.277,0.155,0.094,north-northwest,1.9,No
2018/12/31,09:30,0.224,0.193,0.312,0.292,0.278,0.154,0.094,northwest,2.1,No
2018/12/31,09:40,0.225,0.192,0.313,0.291,0.277,0.156,0.094,north-northwest,2.4,No
2018/12/31,09:50,0.225,0.192,0.313,0.292,0.277,0.154,0.095,north-northwest,3.2,No
2018/12/31,10:00,0.225,0.191,0.312,0.292,0.277,0.156,0.095,north,2.9,No
2018/12/31,10:10,0.224,0.191,0.311,0.291,0.276,0.156,0.095,north-northwest,3.5,No
2018/12/31,10:20,0.224,0.191,0.312,0.291,0.276,0.155,0.094,northwest,2.8,No
2018/12/31,10:30,0.225,0.191,0.314,0.293,0.276,0.155,0.094,northwest,4.9,No
2018/12/31,10:40,0.224,0.192,0.310,0.290,0.276,0.155,0.094,west-northwest,6.1,No
2018/12/31,10:50,0.224,0.192,0.312,0.292,0.277,0.155,0.095,northwest,7.3,No
2018/12/31,11:00,0.225,0.192,0.311,0.292,0.276,0.154,0.093,northwest,8.4,No
2018/12/31,11:10,0.223,0.191,0.311,0.291,0.276,0.156,0.094,northwest,6.7,No
2018/12/31,11:20,0.223,0.192,0.312,0.293,0.277,0.155,0.094,northwest,6.1,No
2018/12/31,11:30,0.223,0.192,0.312,0.291,0.276,0.155,0.095,west-northwest,8.4,No
2018/12/31,11:40,0.223,0.192,0.313,0.293,0.276,0.155,0.094,west-northwest,8.7,No
2018/12/31,11:50,0.225,0.192,0.312,0.292,0.277,0.155,0.095,west-northwest,6.6,No
2018/12/31,12:00,0.223,0.193,0.311,0.291,0.276,0.155,0.095,west-northwest,4.1,No
2018/12/31,12:10,0.223,0.192,0.310,0.293,0.279,0.155,0.094,west-northwest,5.4,No
2018/12/31,12:20,0.224,0.191,0.312,0.290,0.276,0.156,0.094,north-northwest,4.6,No
2018/12/31,12:30,0.224,0.193,0.309,0.292,0.279,0.155,0.094,west-northwest,7.0,No
2018/12/31,12:40,0.225,0.193,0.311,0.291,0.278,0.155,0.094,west-northwest,4.7,No
2018/12/31,12:50,0.224,0.193,0.312,0.292,0.278,0.156,0.093,northwest,5.9,No
2018/12/31,13:00,0.223,0.192,0.312,0.293,0.279,0.155,0.093,west-northwest,6.5,No
2018/12/31,13:10,0.224,0.191,0.310,0.291,0.279,0.155,0.094,west-northwest,7.0,No
2018/12/31,13:20,0.223,0.192,0.312,0.292,0.278,0.156,0.094,west-northwest,7.3,No
2018/12/31,13:30,0.224,0.193,0.314,0.292,0.279,0.155,0.094,northwest,7.0,No
2018/12/31,13:40,0.223,0.194,0.311,0.294,0.277,0.155,0.094,northwest,5.5,No
2018/12/31,13:50,0.224,0.192,0.312,0.294,0.277,0.156,0.094,west-northwest,7.7,No
2018/12/31,14:00,0.223,0.193,0.312,0.290,0.278,0.155,0.094,northwest,7.0,No
2018/12/31,14:10,0.225,0.193,0.312,0.292,0.276,0.155,0.094,northwest,6.2,No
2018/12/31,14:20,0.224,0.192,0.312,0.291,0.277,0.154,0.093,west,8.1,No
2018/12/31,14:30,0.225,0.193,0.314,0.292,0.276,0.156,0.094,west,7.4,No
2018/12/31,14:40,0.225,0.192,0.312,0.293,0.277,0.155,0.094,west,7.4,No
2018/12/31,14:50,0.225,0.191,0.311,0.291,0.279,0.155,0.095,west-northwest,6.0,No
2018/12/31,15:00,0.224,0.193,0.312,0.292,0.277,0.156,0.094,west,4.4,No
2018/12/31,15:10,0.223,0.194,0.313,0.292,0.278,0.155,0.095,west-northwest,4.7,No
2018/12/31,15:20,0.224,0.193,0.312,0.292,0.280,0.155,0.095,west,3.5,No
2018/12/31,15:30,0.225,0.194,0.312,0.294,0.278,0.154,0.094,west-northwest,3.5,No
2018/12/31,15:40,0.223,0.193,0.312,0.293,0.277,0.156,0.093,west-northwest,4.5,No
2018/12/31,15:50,0.224,0.192,0.311,0.293,0.278,0.155,0.094,west-northwest,5.9,No
2018/12/31,16:00,0.225,0.192,0.312,0.293,0.277,0.156,0.095,west-northwest,5.8,No
2018/12/31,16:10,0.226,0.193,0.311,0.293,0.277,0.155,0.095,west-northwest,3.1,No
2018/12/31,16:20,0.225,0.193,0.312,0.293,0.279,0.155,0.094,west,3.8,No
2018/12/31,16:30,0.223,0.192,0.313,0.292,0.277,0.155,0.094,west,5.7,No
2018/12/31,16:40,0.224,0.191,0.312,0.293,0.278,0.156,0.094,west,7.6,No
2018/12/31,16:50,0.225,0.192,0.313,0.293,0.278,0.155,0.094,west-northwest,6.3,No
2018/12/31,17:00,0.225,0.194,0.313,0.293,0.276,0.157,0.095,west-northwest,4.5,No
2018/12/31,17:10,0.225,0.193,0.312,0.292,0.278,0.156,0.094,west-northwest,4.5,No
2018/12/31,17:20,0.224,0.193,0.312,0.293,0.277,0.156,0.094,west-northwest,4.9,No
2018/12/31,17:30,0.225,0.192,0.313,0.293,0.277,0.155,0.095,west-northwest,6.7,No
2018/12/31,17:40,0.224,0.193,0.312,0.294,0.276,0.156,0.094,west-northwest,8.2,No
2018/12/31,17:50,0.224,0.194,0.312,0.292,0.278,0.156,0.094,west-northwest,7.3,No
2018/12/31,18:00,0.224,0.193,0.314,0.291,0.277,0.155,0.094,west-northwest,6.4,No
2018/12/31,18:10,0.224,0.193,0.312,0.294,0.277,0.155,0.094,west-northwest,7.3,No
2018/12/31,18:20,0.225,0.192,0.313,0.293,0.276,0.155,0.094,west-northwest,7.7,No
2018/12/31,18:30,0.224,0.193,0.312,0.292,0.278,0.155,0.095,west-northwest,7.1,No
2018/12/31,18:40,0.224,0.192,0.313,0.293,0.277,0.156,0.095,west-northwest,7.5,No
2018/12/31,18:50,0.225,0.193,0.312,0.293,0.277,0.156,0.095,northwest,7.3,No
2018/12/31,19:00,0.224,0.192,0.312,0.294,0.276,0.156,0.095,northwest,6.4,No
2018/12/31,19:10,0.226,0.192,0.312,0.293,0.276,0.156,0.094,northwest,6.1,No
2018/12/31,19:20,0.225,0.194,0.314,0.293,0.277,0.156,0.094,west-northwest,7.4,No
2018/12/31,19:30,0.225,0.192,0.312,0.292,0.277,0.155,0.095,northwest,5.5,No
2018/12/31,19:40,0.224,0.192,0.313,0.291,0.278,0.155,0.094,northwest,4.6,No
2018/12/31,19:50,0.225,0.192,0.313,0.293,0.278,0.156,0.094,north-northwest,4.3,No
2018/12/31,20:00,0.225,0.193,0.312,0.293,0.278,0.155,0.095,north-northwest,3.5,No
2018/12/31,20:10,0.225,0.194,0.312,0.293,0.277,0.154,0.094,northwest,4.5,No
2018/12/31,20:20,0.225,0.193,0.313,0.294,0.276,0.156,0.094,northwest,5.6,No
2018/12/31,20:30,0.224,0.193,0.311,0.292,0.277,0.155,0.094,west-northwest,4.8,No
2018/12/31,20:40,0.224,0.193,0.314,0.292,0.276,0.155,0.094,west-northwest,7.5,No
2018/12/31,20:50,0.225,0.192,0.312,0.292,0.277,0.156,0.094,northwest,2.6,No
2018/12/31,21:00,0.226,0.193,0.312,0.292,0.277,0.156,0.094,northwest,4.0,No
2018/12/31,21:10,0.225,0.193,0.314,0.292,0.277,0.155,0.094,west-northwest,3.6,No
2018/12/31,21:20,0.224,0.193,0.314,0.293,0.276,0.156,0.095,west-northwest,3.9,No
2018/12/31,21:30,0.224,0.193,0.314,0.292,0.277,0.156,0.094,west-northwest,4.0,No
2018/12/31,21:40,0.225,0.193,0.313,0.292,0.276,0.155,0.094,west-northwest,3.9,No
2018/12/31,21:50,0.224,0.195,0.313,0.292,0.277,0.156,0.094,west-northwest,4.0,No
2018/12/31,22:00,0.224,0.192,0.313,0.293,0.277,0.155,0.094,west-northwest,4.5,No
2018/12/31,22:10,0.225,0.193,0.313,0.292,0.277,0.155,0.095,west-northwest,5.3,No
2018/12/31,22:20,0.224,0.193,0.313,0.292,0.277,0.156,0.094,west,3.7,No
2018/12/31,22:30,0.224,0.194,0.312,0.291,0.276,0.155,0.094,west,2.4,No
2018/12/31,22:40,0.225,0.193,0.312,0.294,0.277,0.155,0.094,west-northwest,1.7,No
2018/12/31,22:50,0.225,0.193,0.313,0.292,0.278,0.155,0.094,west-northwest,1.5,No
2018/12/31,23:00,0.224,0.192,0.312,0.293,0.275,0.155,0.094,west-northwest,2.4,No
2018/12/31,23:10,0.225,0.194,0.312,0.292,0.277,0.155,0.095,west-northwest,3.8,No
2018/12/31,23:20,0.224,0.193,0.312,0.293,0.275,0.156,0.094,northwest,3.7,No
2018/12/31,23:30,0.225,0.192,0.310,0.293,0.278,0.156,0.094,west-northwest,2.8,No
2018/12/31,23:40,0.224,0.193,0.314,0.292,0.277,0.155,0.095,west-northwest,2.6,No
2018/12/31,23:50,0.225,0.193,0.312,0.292,0.277,0.156,0.094,west-northwest,2.3,No
